Wind_Speed
20 20 20 20 21 21 23 23 23 24 25 26 26 26 26 27 27 28 28 29 30 31 31 31 32 32 32 34 35 35 36 35 35 35 35 35 35 34
20 20 20 21 21 23 23 24 24 25 25 26 26 26 27 27 28 28 28 28 29 30 31 31 31 32 33 33 34 35 36 36 36 36 37 37 36 35
20 20 21 22 22 23 23 24 24 24 24 24 26 27 28 28 29 29 29 29 29 30 31 31 31 32 32 33 34 34 34 36 36 37 37 38 38 37
20 21 22 23 23 24 23 24 24 24 25 25 26 27 27 28 29 29 29 30 30 31 32 32 32 32 33 33 33 34 34 36 36 37 37 38 39 40
21 22 22 23 23 24 24 25 25 25 26 27 27 28 28 29 29 29 30 30 31 32 32 32 32 32 33 33 33 34 34 35 36 37 38 38 38 39
21 22 22 22 23 23 24 24 24 25 26 26 26 27 28 28 28 28 28 28 29 29 30 30 30 31 32 32 32 33 34 35 36 37 38 38 38 39
22 22 23 23 23 23 23 23 23 23 24 24 24 25 24 24 25 25 25 25 26 27 28 28 28 30 31 31 31 32 33 35 36 36 38 38 38 39
22 23 23 23 22 22 22 22 23 23 23 22 21 21 21 20 21 22 23 23 23 24 25 26 28 28 29 29 30 31 32 33 34 36 36 37 38 38
22 22 22 22 22 22 22 22 22 22 21 20 20 20 20 20 20 21 22 23 22 22 24 25 26 27 28 29 30 30 31 31 32 33 34 35 36 37
22 22 22 22 21 22 22 21 21 20 20 21 20 20 20 19 19 20 21 21 22 22 23 23 24 25 26 27 28 29 30 31 32 33 34 35 35 37
21 21 21 21 21 21 20 20 19 19 19 19 19 19 19 19 19 20 20 20 20 21 22 21 22 24 24 25 26 27 29 30 31 32 33 34 35 36
21 20 20 20 20 20 20 19 18 18 18 18 18 17 17 18 18 18 19 19 18 18 19 19 20 22 22 23 24 25 27 28 29 30 32 33 34 36
20 19 19 19 20 20 20 19 18 17 17 17 16 16 17 17 17 17 17 17 18 17 17 18 18 20 20 21 23 24 26 27 28 29 30 31 33 35
20 20 20 20 20 20 19 18 18 17 17 17 16 16 16 17 17 17 17 17 18 18 18 18 18 19 20 20 21 23 24 26 27 28 29 30 32 33
20 20 20 20 20 19 18 17 17 17 16 16 15 15 16 17 17 17 18 18 18 18 18 18 19 19 20 21 21 21 22 24 25 27 28 30 31 32
21 21 20 20 19 18 17 17 17 17 16 16 16 17 17 18 18 17 18 18 18 18 19 19 19 19 19 20 20 21 22 23 23 24 24 26 27 29
20 20 19 19 18 18 18 17 17 16 16 16 17 17 18 18 18 18 18 19 19 19 19 19 20 19 19 19 19 20 21 22 23 24 24 23 24 25
19 20 20 19 18 18 18 17 17 16 16 17 17 18 18 18 18 18 18 19 19 19 19 19 20 19 19 20 20 21 21 22 22 22 23 22 22 23
21 20 20 19 19 18 18 17 17 17 17 17 18 18 18 18 18 18 18 18 19 19 19 19 19 19 19 20 20 21 21 21 21 21 21 21 21 22
21 21 21 20 20 19 19 19 18 18 18 19 19 19 18 18 19 19 18 18 18 18 18 18 18 18 19 20 20 20 20 20 20 20 20 20 20 21
21 21 21 20 20 20 20 19 19 19 19 20 21 19 18 18 19 19 18 18 18 18 18 18 18 19 19 18 18 18 18 18 18 18 18 18 18 18
21 21 21 21 20 20 20 20 20 20 20 21 21 19 18 18 18 18 18 18 18 18 17 18 18 18 17 16 16 17 16 16 17 17 18 17 17 17
22 22 22 22 22 21 21 21 21 21 20 21 21 20 19 19 19 19 19 19 19 18 18 17 17 17 16 16 16 17 17 17 17 17 17 17 17 17
Wind_Direction
296 296 293 290 289 288 286 284 281 280 280 279 277 275 273 271 268 265 263 261 259 259 258 259 258 256 255 252 250 249 248 249 249 247 248 248 247 249
297 296 294 291 290 289 288 286 284 283 282 280 278 275 273 270 269 266 264 262 261 260 260 260 259 258 256 255 252 250 250 251 250 248 247 248 248 250
298 297 296 293 290 290 288 287 287 286 285 281 279 277 276 272 271 268 266 265 263 261 261 260 259 259 257 255 253 251 251 251 251 250 249 249 248 249
301 301 301 299 294 290 288 287 286 284 283 281 279 279 277 274 272 270 269 267 264 263 262 261 260 259 257 255 253 253 252 252 251 251 251 251 251 251
305 304 303 302 298 294 291 289 287 285 285 284 282 280 276 274 272 270 269 268 265 264 263 261 260 259 257 255 252 252 252 252 252 251 250 251 251 252
306 305 303 302 300 298 295 292 290 289 289 288 286 284 280 277 274 272 270 269 267 265 263 262 260 259 257 255 254 253 252 252 253 251 250 250 250 250
307 305 303 303 303 302 299 295 293 292 292 292 291 288 285 281 277 274 272 272 271 268 265 262 260 259 257 256 254 254 253 253 253 252 251 251 251 250
308 307 305 304 304 303 304 300 295 294 294 295 295 293 288 284 280 277 276 275 273 271 268 265 262 259 257 256 255 255 255 254 253 253 252 251 251 251
309 309 308 306 305 305 305 304 301 295 294 294 294 295 293 288 284 281 279 278 277 273 270 267 264 262 260 258 258 258 257 256 256 255 254 253 251 251
311 310 310 309 309 308 307 306 305 301 297 294 292 293 293 291 288 286 284 282 278 275 273 271 267 265 264 263 261 261 260 259 258 257 256 254 253 253
314 313 312 312 314 314 311 310 309 306 302 299 296 294 293 293 290 288 286 285 281 277 276 274 270 266 265 266 265 264 263 263 261 259 258 257 256 255
315 315 314 315 317 317 316 314 310 308 307 305 302 300 299 297 295 292 288 287 287 284 282 278 273 272 269 267 267 268 267 265 262 262 260 258 257 255
316 316 316 316 316 316 316 314 311 309 310 310 306 304 302 302 301 299 294 291 290 288 286 283 280 278 276 274 270 271 271 268 265 265 263 260 259 257
316 315 315 315 315 316 315 314 311 309 308 309 307 304 304 303 304 303 300 297 295 291 289 287 285 283 281 280 276 275 275 273 269 268 266 264 261 259
316 315 314 315 316 314 313 313 312 312 312 312 310 307 305 304 304 303 301 300 299 297 295 292 288 285 282 281 278 277 278 277 276 273 270 267 265 263
314 314 313 314 316 314 312 312 312 310 310 310 310 309 308 308 307 304 302 300 297 297 297 295 292 289 287 285 283 283 283 283 283 283 280 274 270 267
316 316 315 315 314 312 312 313 314 313 310 310 311 312 312 311 308 304 301 300 299 298 298 296 294 291 290 288 287 287 286 285 285 284 282 277 273 271
316 316 316 314 313 312 312 312 312 314 314 314 315 315 314 313 311 308 305 303 302 301 299 298 296 292 292 291 290 289 288 288 286 285 285 281 277 273
314 314 314 314 313 311 310 309 309 310 312 313 314 315 314 312 311 310 308 307 306 304 302 300 298 296 295 294 292 291 290 289 286 284 285 282 278 274
312 312 313 313 312 310 309 308 307 308 309 311 313 313 313 312 311 309 308 306 306 305 305 303 301 299 297 296 295 293 293 291 288 287 286 284 280 276
312 313 313 314 311 307 307 307 306 306 308 310 311 310 310 311 312 311 309 307 306 305 306 306 304 301 300 298 298 298 296 294 291 291 291 289 286 282
313 313 312 313 312 309 308 307 305 305 305 307 309 308 305 307 310 312 311 309 307 306 305 305 303 302 300 298 299 299 299 297 294 294 294 294 292 290
311 310 309 309 308 307 306 305 304 304 304 305 305 303 301 302 306 309 310 308 307 308 307 305 304 302 300 298 299 301 301 301 300 298 297 297 295 293
Height
5754 5752 5750 5748 5747 5745 5744 5743 5743 5742 5741 5740 5739 5737 5737 5736 5736 5737 5737 5738 5739 5740 5742 5743 5745 5746 5748 5750 5752 5754 5757 5760 5763 5766 5769 5771 5774 5776
5749 5747 5745 5743 5741 5739 5738 5736 5735 5734 5733 5732 5731 5730 5729 5729 5729 5729 5730 5730 5731 5732 5733 5735 5736 5737 5739 5740 5742 5745 5748 5750 5753 5756 5759 5762 5764 5766
5743 5741 5739 5737 5735 5733 5731 5729 5728 5726 5725 5725 5723 5722 5722 5721 5721 5721 5721 5722 5723 5723 5724 5726 5727 5728 5729 5731 5733 5736 5738 5741 5743 5746 5749 5751 5754 5757
5738 5736 5733 5731 5728 5726 5724 5722 5720 5719 5718 5717 5716 5715 5714 5713 5713 5713 5713 5714 5714 5715 5715 5716 5717 5718 5720 5721 5723 5726 5728 5731 5733 5736 5739 5741 5744 5746
5733 5730 5728 5725 5722 5719 5717 5715 5713 5712 5710 5708 5708 5707 5706 5705 5705 5705 5705 5705 5705 5706 5706 5707 5708 5708 5710 5712 5714 5716 5719 5721 5723 5726 5728 5731 5733 5735
5727 5725 5722 5719 5716 5713 5710 5708 5706 5704 5703 5701 5699 5699 5698 5697 5696 5696 5696 5696 5696 5696 5697 5697 5698 5699 5700 5702 5704 5706 5708 5710 5712 5714 5717 5719 5722 5724
5722 5719 5716 5713 5710 5707 5704 5702 5700 5698 5696 5694 5692 5691 5690 5689 5688 5688 5688 5688 5687 5687 5688 5689 5689 5690 5691 5693 5694 5696 5698 5699 5701 5703 5705 5708 5710 5713
5716 5713 5710 5707 5704 5701 5699 5696 5693 5691 5690 5687 5686 5684 5683 5682 5681 5681 5680 5680 5680 5680 5680 5680 5680 5681 5682 5683 5685 5686 5688 5689 5691 5692 5694 5696 5699 5701
5711 5707 5704 5701 5699 5696 5693 5690 5688 5685 5683 5682 5680 5678 5677 5676 5675 5674 5673 5673 5673 5672 5672 5672 5672 5672 5673 5674 5675 5677 5678 5679 5681 5682 5684 5686 5688 5690
5705 5702 5699 5696 5693 5690 5687 5685 5682 5680 5678 5676 5674 5673 5671 5670 5668 5667 5666 5666 5665 5665 5664 5664 5664 5664 5665 5665 5667 5668 5669 5670 5671 5672 5673 5675 5677 5679
5700 5697 5694 5691 5688 5685 5682 5679 5677 5675 5672 5670 5669 5667 5666 5664 5663 5662 5660 5659 5659 5658 5657 5657 5657 5657 5657 5658 5658 5659 5659 5660 5661 5662 5663 5664 5666 5668
5695 5692 5689 5686 5683 5680 5677 5675 5673 5670 5668 5666 5664 5662 5661 5659 5658 5656 5655 5654 5653 5652 5651 5651 5650 5650 5651 5651 5650 5651 5651 5651 5651 5652 5653 5654 5655 5656
5691 5688 5685 5682 5679 5676 5673 5670 5668 5666 5664 5662 5660 5658 5656 5654 5653 5651 5650 5648 5647 5646 5646 5644 5644 5643 5643 5643 5643 5642 5642 5642 5642 5642 5643 5643 5644 5645
5686 5683 5680 5677 5674 5671 5669 5666 5664 5662 5660 5657 5655 5654 5652 5650 5648 5646 5645 5643 5642 5641 5640 5638 5638 5637 5636 5636 5635 5635 5633 5633 5632 5632 5632 5632 5633 5633
5682 5679 5676 5673 5670 5667 5664 5662 5660 5658 5655 5653 5651 5649 5647 5646 5644 5642 5640 5638 5637 5635 5633 5632 5631 5630 5629 5628 5628 5627 5626 5624 5623 5622 5622 5622 5621 5622
5677 5674 5671 5668 5665 5662 5660 5658 5656 5653 5651 5649 5647 5645 5643 5641 5639 5637 5635 5633 5631 5630 5628 5626 5624 5623 5622 5621 5620 5619 5617 5616 5615 5613 5612 5611 5610 5610
5672 5669 5666 5663 5661 5658 5656 5653 5651 5649 5647 5645 5643 5640 5638 5636 5634 5632 5630 5628 5626 5624 5622 5620 5618 5616 5615 5614 5612 5611 5609 5608 5606 5605 5604 5602 5601 5601
5667 5664 5661 5659 5656 5654 5651 5649 5647 5645 5642 5640 5638 5636 5633 5631 5629 5626 5624 5622 5620 5618 5616 5614 5612 5610 5609 5607 5605 5603 5601 5600 5598 5596 5595 5594 5593 5592
5662 5659 5657 5654 5651 5649 5647 5644 5642 5640 5638 5636 5633 5631 5628 5626 5623 5621 5619 5616 5614 5612 5609 5607 5605 5603 5602 5601 5599 5596 5594 5592 5591 5589 5587 5586 5585 5584
5657 5654 5652 5649 5646 5644 5642 5639 5637 5635 5633 5631 5628 5626 5623 5621 5618 5616 5613 5611 5608 5606 5603 5601 5599 5597 5595 5594 5592 5590 5587 5585 5583 5582 5581 5579 5578 5576
5652 5649 5647 5644 5641 5639 5637 5634 5632 5630 5628 5625 5623 5620 5618 5616 5613 5610 5608 5605 5603 5600 5598 5596 5593 5591 5589 5587 5585 5583 5581 5578 5577 5575 5574 5572 5571 5570
5647 5644 5641 5639 5636 5634 5631 5628 5626 5624 5622 5620 5617 5615 5613 5610 5608 5605 5603 5600 5598 5595 5593 5590 5588 5586 5583 5581 5580 5578 5576 5574 5571 5569 5567 5566 5565 5564
5642 5639 5636 5633 5631 5628 5625 5623 5620 5618 5616 5614 5612 5609 5607 5605 5603 5601 5598 5595 5592 5590 5587 5585 5583 5580 5578 5576 5574 5573 5571 5568 5566 5564 5563 5560 5559 5557